Hovedside
METAR-TAF:

METAR-TAF

Lufthavner :

Hemavan flyplass

Hemavan, Sverige

breddegrad: 65-48-22N, lengdegrad: 015-04-58E, høyde over havet: 458 m

Gjeldene værobservasjon

Denne rapporten ble laget for 13 minutter siden, klokken 20:20 UTC
Vind 5 kt fra Nordvest, skiftende mellom Vest og Nord-nordvest
Temperatur 3°C
Luftfuktighet 70%
Trykk 997 hPa
Sikt 10 km eller mer

METAR: ESUT 262020Z AUTO 31005KT 270V340 9999 OVC045/// 03/M02 Q0997

Tid: 22:33 (20:33 UTC)


TAF: fraværende

Værobservasjoner og værvarsel for over 4000 flyplasser (METAR- og TAF-rapporter).

Tilgjengelige stasjoner er representert av de røde og gule prikkene på kartet.

Hold musepekeren over prikken for å se navnet på stasjonen.

Klikk så for å se værobservasjoner og -varsler.

For å forandre kartet kan du klikke på den grønne knappen med svart kryss for å zoome inn, på den grønne knappen med strek for å zoome ut, eller på de grønne pilene for å se tilstøtende kart.


METAR-TAF: